Notices

What's New in latest Release from April 7th, 2021:

- Updated Glossary, including Speed of Maximum Gust, and Total Hourly Precipitation

- Updated national and regional climate services offices contacts and prices information

- Addition of station inventory lists for 1981-2010, 1971-2000, and 1961-1990 Normals.

If you haven't already, please take our survey and provide feedback about our website: https://eccc.sondage-survey.ca/f/LanguageSelection.aspx?s=442ca660-fcf1-47c0-95a9-59707d6fd709

Hourly Data Report for November 29, 2019

VICTORIA UNIVERSITY CS
BRITISH COLUMBIA
Current Station Operator: ECCC - MSC

48°27'25.200" N
123°18'16.600" W
60.10 m
1018598
71783
WYJ

Download Data

Hourly Data (November 2019)
Hourly Data Report for November 29, 2019
TIME
LST
Temp Definition
°C
Dew Point Definition
°C
Rel Hum Definition
%
Precip. Amount Definition
mm

Wind Dir Definition
10's deg

Wind Spd Definition
km/h
Visibility Definition
km
Stn Press Definition
kPa
Hmdx Definition


Wind Chill Definition


Weather Definition


00:00 3.0 -6.6 49 0.0 2 9   100.63     LegendNANA
01:00 2.7 -7.3 48 0.0 4 11   100.60     LegendNANA
02:00 2.6 -7.8 46 0.0 2 11   100.60     LegendNANA
03:00 2.6 -7.4 48 0.0 3 13   100.57     LegendNANA
04:00 2.3 -6.9 51 0.0 3 9   100.56     LegendNANA
05:00 2.0 -7.0 51 0.0 2 8   100.54     LegendNANA
06:00 1.9 -6.5 54 0.0 1 6   100.55     LegendNANA
07:00 0.9 -3.6 72 0.0 36 5   100.56     LegendNANA
08:00 0.4 -3.3 76 0.0 31 4   100.56     LegendNANA
09:00 1.6 -2.5 74 0.0 33 7   100.57     LegendNANA
10:00 3.5 -2.2 66 0.0 35 6   100.56     LegendNANA
11:00 3.9 -3.4 59 0.0 36 10   100.54     LegendNANA
12:00 4.1 -3.5 58 0.0 35 11   100.47     LegendNANA
13:00 4.1 -3.6 57 0.0 2 10   100.41     LegendNANA
14:00 4.1 -2.4 62 0.0 2 10   100.39     LegendNANA
15:00 3.7 -3.6 59 0.0 1 7   100.41     LegendNANA
16:00 2.7 -3.6 63 0.0 2 3   100.46     LegendNANA
17:00 1.9 -3.5 68 0.0 36 5   100.46     LegendNANA
18:00 0.3 -3.3 77 0.0 36 3   100.50     LegendNANA
19:00 2.2 -3.0 68 0.0 36 6   100.53     LegendNANA
20:00 0.2 -3.5 76 0.0 32 4   100.59     LegendNANA
21:00 0.5 -1.9 84 0.0 30 6   100.62     LegendNANA
22:00 0.5 -2.1 82 0.0 31 6   100.65     LegendNANA
23:00 -0.7 -2.6 87 0.0 29 5   100.69   -2 LegendNANA

Notes on Data Quality.

Legend

  • E = Estimated
  • M = Missing
  • NA = Not Available*
  • [empty] = Indicates an unobserved value
Date modified: